Meteo pe oră la Abay (Maktaaralskiy rayon)

Astăzi, 3 August, Marţi

Timp Temperatura Precipitaţii Vânt Presiune Umiditate
00:00 +28°C° 0 mm 2 m/s 729 mmHg 36%
01:00 +27°C° 0 mm 2 m/s 729 mmHg 39%
02:00 +26°C° 0 mm 2 m/s 729 mmHg 42%
03:00 +26°C° 0 mm 2 m/s 729 mmHg 42%
04:00 +25°C° 0 mm 2 m/s 730 mmHg 43%
05:00 +25°C° 0 mm 2 m/s 730 mmHg 44%
06:00 +28°C° 0 mm 2 m/s 730 mmHg 38%
07:00 +30°C° 0 mm 1 m/s 731 mmHg 33%
08:00 +33°C° 0 mm 1 m/s 731 mmHg 27%
09:00 +35°C° 0 mm 1 m/s 731 mmHg 24%
10:00 +37°C° 0 mm 1 m/s 731 mmHg 20%
11:00 +40°C° 0 mm 1 m/s 731 mmHg 18%
12:00 +41°C° 0 mm 2 m/s 731 mmHg 16%
13:00 +43°C° 0 mm 3 m/s 730 mmHg 15%
14:00 +43°C° 0 mm 4 m/s 730 mmHg 14%
15:00 +43°C° 0 mm 4 m/s 730 mmHg 13%
16:00 +43°C° 0 mm 4 m/s 729 mmHg 13%
17:00 +43°C° 0 mm 4 m/s 729 mmHg 12%
18:00 +39°C° 0 mm 3 m/s 729 mmHg 17%
19:00 +36°C° 0 mm 3 m/s 729 mmHg 22%
20:00 +33°C° 0 mm 3 m/s 730 mmHg 27%
21:00 +31°C° 0 mm 3 m/s 730 mmHg 29%
22:00 +30°C° 0 mm 2 m/s 730 mmHg 30%
23:00 +28°C° 0 mm 2 m/s 730 mmHg 32%

Mâine, 4 August, Miercuri

Timp Temperatura Precipitaţii Vânt Presiune Umiditate
00:00 +28°C° 0 mm 2 m/s 730 mmHg 34%
01:00 +27°C° 0 mm 1 m/s 730 mmHg 36%
02:00 +26°C° 0 mm 1 m/s 730 mmHg 38%
03:00 +26°C° 0 mm 1 m/s 730 mmHg 38%
04:00 +25°C° 0 mm 1 m/s 730 mmHg 38%
05:00 +25°C° 0 mm 1 m/s 730 mmHg 39%
06:00 +27°C° 0 mm 1 m/s 730 mmHg 34%
07:00 +29°C° 0 mm 1 m/s 731 mmHg 30%
08:00 +32°C° 0 mm 1 m/s 731 mmHg 26%
09:00 +34°C° 0 mm 1 m/s 731 mmHg 22%
10:00 +38°C° 0 mm 2 m/s 731 mmHg 18%
11:00 +40°C° 0 mm 2 m/s 731 mmHg 14%
12:00 +42°C° 0 mm 3 m/s 730 mmHg 13%
13:00 +44°C° 0 mm 4 m/s 730 mmHg 11%
14:00 +46°C° 0 mm 5 m/s 729 mmHg 10%
15:00 +46°C° 0 mm 5 m/s 729 mmHg 9%
16:00 +46°C° 0 mm 5 m/s 729 mmHg 9%
17:00 +46°C° 0 mm 5 m/s 729 mmHg 9%
18:00 +42°C° 0 mm 4 m/s 729 mmHg 11%
19:00 +38°C° 0 mm 4 m/s 729 mmHg 14%
20:00 +36°C° 0 mm 4 m/s 729 mmHg 16%
21:00 +34°C° 0 mm 4 m/s 729 mmHg 18%
22:00 +33°C° 0 mm 3 m/s 730 mmHg 20%
23:00 +30°C° 0 mm 3 m/s 730 mmHg 22%

Poimâine, 5 August, Joi

Timp Temperatura Precipitaţii Vânt Presiune Umiditate
00:00 +29°C° 0 mm 3 m/s 730 mmHg 24%
01:00 +29°C° 0 mm 3 m/s 729 mmHg 26%
02:00 +28°C° 0 mm 3 m/s 729 mmHg 28%
03:00 +27°C° 0 mm 2 m/s 729 mmHg 30%
04:00 +26°C° 0 mm 2 m/s 729 mmHg 32%
05:00 +25°C° 0 mm 2 m/s 730 mmHg 34%
06:00 +27°C° 0 mm 2 m/s 730 mmHg 30%
07:00 +29°C° 0 mm 2 m/s 730 mmHg 27%
08:00 +32°C° 0 mm 2 m/s 731 mmHg 23%
09:00 +35°C° 0 mm 2 m/s 730 mmHg 20%
10:00 +38°C° 0 mm 2 m/s 730 mmHg 17%
11:00 +40°C° 0 mm 3 m/s 730 mmHg 15%
12:00 +42°C° 0 mm 3 m/s 730 mmHg 13%
13:00 +43°C° 0 mm 3 m/s 729 mmHg 12%
14:00 +45°C° 0 mm 4 m/s 729 mmHg 11%
15:00 +44°C° 0 mm 4 m/s 728 mmHg 11%
16:00 +44°C° 0 mm 4 m/s 728 mmHg 10%
17:00 +44°C° 0 mm 4 m/s 728 mmHg 10%
18:00 +42°C° 0 mm 4 m/s 728 mmHg 12%
19:00 +38°C° 0 mm 4 m/s 728 mmHg 15%
20:00 +35°C° 0 mm 4 m/s 728 mmHg 17%
21:00 +35°C° 0 mm 5 m/s 728 mmHg 18%
22:00 +34°C° 0 mm 5 m/s 728 mmHg 20%
23:00 +34°C° 0 mm 5 m/s 728 mmHg 22%

6 August, Vineri

Timp Temperatura Precipitaţii Vânt Presiune Umiditate
00:00 +32°C° 0 mm 5 m/s 728 mmHg 24%
01:00 +30°C° 0 mm 4 m/s 728 mmHg 26%
02:00 +28°C° 0 mm 4 m/s 728 mmHg 28%
03:00 +27°C° 0 mm 3 m/s 729 mmHg 29%
04:00 +26°C° 0 mm 3 m/s 729 mmHg 31%
05:00 +25°C° 0 mm 3 m/s 729 mmHg 32%
06:00 +27°C° 0 mm 3 m/s 730 mmHg 29%
07:00 +29°C° 0 mm 2 m/s 730 mmHg 27%
08:00 +32°C° 0 mm 2 m/s 731 mmHg 24%
09:00 +35°C° 0 mm 3 m/s 731 mmHg 20%
10:00 +38°C° 0 mm 4 m/s 730 mmHg 17%
11:00 +42°C° 0 mm 4 m/s 730 mmHg 14%
12:00 +42°C° 0 mm 5 m/s 730 mmHg 13%
13:00 +43°C° 0 mm 5 m/s 730 mmHg 12%
14:00 +45°C° 0 mm 5 m/s 730 mmHg 11%
15:00 +45°C° 0 mm 5 m/s 729 mmHg 10%
16:00 +45°C° 0 mm 6 m/s 729 mmHg 10%
17:00 +45°C° 0 mm 6 m/s 729 mmHg 10%
18:00 +41°C° 0 mm 6 m/s 729 mmHg 11%
19:00 +39°C° 0 mm 5 m/s 729 mmHg 13%
20:00 +35°C° 0 mm 5 m/s 729 mmHg 14%
21:00 +34°C° 0 mm 5 m/s 729 mmHg 16%
22:00 +33°C° 0 mm 5 m/s 729 mmHg 17%
23:00 +32°C° 0 mm 5 m/s 729 mmHg 18%

7 August, Sâmbătă

Timp Temperatura Precipitaţii Vânt Presiune Umiditate
00:00 +30°C° 0 mm 4 m/s 729 mmHg 20%
01:00 +28°C° 0 mm 3 m/s 729 mmHg 22%
02:00 +27°C° 0 mm 2 m/s 729 mmHg 23%
03:00 +26°C° 0 mm 2 m/s 729 mmHg 25%
04:00 +25°C° 0 mm 2 m/s 730 mmHg 26%
05:00 +25°C° 0 mm 2 m/s 730 mmHg 28%
06:00 +27°C° 0 mm 2 m/s 731 mmHg 25%
07:00 +30°C° 0 mm 2 m/s 731 mmHg 21%
08:00 +33°C° 0 mm 3 m/s 731 mmHg 18%
09:00 +36°C° 0 mm 3 m/s 731 mmHg 16%
10:00 +38°C° 0 mm 4 m/s 731 mmHg 14%
11:00 +41°C° 0 mm 4 m/s 731 mmHg 11%
12:00 +42°C° 0 mm 5 m/s 731 mmHg 11%
13:00 +43°C° 0 mm 5 m/s 731 mmHg 10%
14:00 +45°C° 0 mm 5 m/s 730 mmHg 9%
15:00 +45°C° 0 mm 5 m/s 730 mmHg 9%
16:00 +45°C° 0 mm 5 m/s 730 mmHg 9%
17:00 +43°C° 0 mm 5 m/s 730 mmHg 9%
18:00 +41°C° 0 mm 5 m/s 730 mmHg 11%
19:00 +37°C° 0 mm 4 m/s 730 mmHg 14%
20:00 +34°C° 0 mm 4 m/s 730 mmHg 16%
21:00 +33°C° 0 mm 4 m/s 730 mmHg 17%
22:00 +32°C° 0 mm 4 m/s 730 mmHg 19%
23:00 +30°C° 0 mm 4 m/s 730 mmHg 20%

8 August, Duminică

Timp Temperatura Precipitaţii Vânt Presiune Umiditate
00:00 +29°C° 0 mm 3 m/s 731 mmHg 22%
01:00 +27°C° 0 mm 2 m/s 731 mmHg 24%
02:00 +26°C° 0 mm 1 m/s 731 mmHg 26%
03:00 +26°C° 0 mm 1 m/s 731 mmHg 26%
04:00 +25°C° 0 mm 1 m/s 731 mmHg 27%
05:00 +24°C° 0 mm 1 m/s 732 mmHg 28%
06:00 +27°C° 0 mm 1 m/s 732 mmHg 25%
07:00 +29°C° 0 mm 1 m/s 733 mmHg 22%
08:00 +32°C° 0 mm 2 m/s 733 mmHg 18%
09:00 +36°C° 0 mm 2 m/s 733 mmHg 16%
10:00 +38°C° 0 mm 3 m/s 733 mmHg 13%
11:00 +42°C° 0 mm 3 m/s 733 mmHg 11%
12:00 +43°C° 0 mm 4 m/s 733 mmHg 10%
13:00 +44°C° 0 mm 4 m/s 732 mmHg 9%
14:00 +45°C° 0 mm 4 m/s 732 mmHg 8%
15:00 +46°C° 0 mm 5 m/s 732 mmHg 8%
16:00 +46°C° 0 mm 5 m/s 732 mmHg 8%
17:00 +46°C° 0 mm 5 m/s 731 mmHg 7%
18:00 +42°C° 0 mm 5 m/s 732 mmHg 9%
19:00 +39°C° 0 mm 5 m/s 732 mmHg 11%
20:00 +35°C° 0 mm 4 m/s 732 mmHg 13%
21:00 +34°C° 0 mm 4 m/s 732 mmHg 15%
22:00 +32°C° 0 mm 4 m/s 732 mmHg 17%
23:00 +30°C° 0 mm 4 m/s 732 mmHg 19%
Arată mai mult

Formular de consimțământ

Meteoprog și furnizorii noștri de servicii pot stoca și accesa date personale, precum cookies, identificatori de dispozitiv sau alte tehnologii similare pe dispozitivul dumneavoastră și procesa astfel de date pentru a personaliza conținutul și reclamele, dar și pentru a oferi caracteristici de social media și pentru a analiza traficul.

  • Stocarea și/sau accesarea informațiilor pe dispozitivul dumneavoastră

    Cookies, identificatori de dispozitiv sau alte informații pot fi stocate sau accesate pe dispozitiv în scopurile indicate mai sus.

  • Reclame și conținut personalizat, evaluarea reclamelor și a conținutului, informații despre audiențe și dezvoltarea produselor

    Reclamele și conținutul pot fi personalizate pe baza unui profil. Pot fi adăugate date suplimentare pentru a personaliza mai bine reclamele și conținutul. Performanța reclamelor și conținutului poate fi măsurată. Pot fi obținute informații despre utilizatorii care au văzut reclamele și conținutul. Aceste date pot fi utilizate pentru a dezvolta sau îmbunătăți experiența utilizatorilor, sistemele și software-ul.

Dând clic pe ‘Sunt de acord’, permiteți utilizarea cookie-urilor menționate, a identificatorilor de dispozitiv, balizelor web sau altor tehnologii similare. Setările pot fi modificate din browser-ul dispozitivului dumneavoastră.

În anumite scopuri, interesele legitime pot prima asupra consimțământului. Puteți citi mai multe informații în acest sens în Politica privind Confidențialitatea Datelor și Cookie.